Regional Weather Roundup
Issued by NWS Green Bay, WI

Home | Current Version | Previous Version | Graphics & Text | Print | Product List | Glossary Off
Versions: 1 2 3 4 5 6 7 8 9 10 11 12 13 14 15 16 17 18 19 20 21 22 23 24 25 26 27 28 29 30 31 32 33 34 35 36 37 38 39 40 41 42 43 44 45 46 47 48 49 50

000
ASUS43 KGRB 282159
RWRGRB

NORTH-CENTRAL AND NORTHEAST WISCONSIN REGIONAL WEATHER ROUNDUP
NATIONAL WEATHER SERVICE GREEN BAY WI
400 PM CST SUN DEC 28 2014

WIZ005-009-010>012-018-019-282300-
NORTH CENTRAL WISCONSIN

CITY           SKY/WX    TMP DP  RH WIND       PRES   REMARKS
IRONWOOD       CLOUDY    12   7  79 NW6       30.15R WCI   3
MANITOWISH WTR NOT AVBL
ARBOR VITAE    NOT AVBL
EAGLE RIVER    NOT AVBL
LAND O LAKES   NOT AVBL
RHINELANDER    CLOUDY    15   8  73 NW5       30.11R WCI   8
PHILLIPS       MOCLDY    15   8  73 NW3       30.13R
ANTIGO         NOT AVBL
TOMAHAWK       NOT AVBL
MERRILL        NOT AVBL
$$

WIZ013-073-282300-
NORTHEAST WISCONSIN

CITY           SKY/WX    TMP DP  RH WIND       PRES   REMARKS
IRON MOUNTAIN    N/A     19  10  68 NW10      30.11R WCI   7
MARINETTE      CLOUDY    25  10  54 NW6       30.14R
$$

WIZ017-030-035>037-045-282300-
CENTRAL WISCONSIN

CITY           SKY/WX    TMP DP  RH WIND       PRES   REMARKS
MEDFORD        NOT AVBL
WAUSAU         CLOUDY    18  13  80 W7        30.13R HAZE    WCI   9
MOSINEE        LGT SNOW  19  18  93 W5        30.15
MARSHFIELD     CLOUDY    19  14  81 NW5       30.15R
WISC RAPIDS    CLOUDY    23  16  74 N5        30.17R
STEVENS POINT  NOT AVBL
WAUPACA        NOT AVBL
SHAWANO        CLOUDY    25  17  71 W6        30.16R
CLINTONVILLE   CLOUDY    25  18  74 NW8       30.15R
$$

WIZ038-039-048-051-282300-
FOX VALLEY

CITY           SKY/WX    TMP DP  RH WIND       PRES   REMARKS
NWS GREEN BAY  CLOUDY    27  19  72 NW9       30.16R
APPLETON       MOCLDY    27  18  69 NW6       30.15R
OSHKOSH        CLOUDY    29  18  63 NW7       30.15R
FOND DU LAC    CLEAR     29  18  63 W7        30.15R
$$

WIZ022-050-052-282300-
EAST CENTRAL WISCONSIN

CITY           SKY/WX    TMP DP  RH WIND       PRES   REMARKS
STURGEON BAY   MOCLDY    25  10  54 NW12      30.16R
MANITOWOC      NOT AVBL
SHEBOYGAN      CLEAR     28  18  66 W6        30.15R
$$

LMZ563-521-522-541>543-282300-
LAKESHORE

STATION/POSITION TIME  TEMP    WIND        PRES    VSBY  WAVE
                       AIR SEA DIR/SP/G                  HT/PER
                 (UTC) (F)     (DEG/KT/KT) (MB)    (MI)  (FT/S)
SHEBOYGAN LKSHOR 2100   29 37  300/  9/ 11 1021.8R
KEWAUNEE LKSHORE 2100   27     300/  8/ 12 1020.0R
ALGOMA MARINA    2100          310/ 11/ 14   N/A
NORTHPORT PIER   2100   25     300/ 12/ 17 1020.3R
SISTER BAY LKSHO 2100          320/ 15/ 17   N/A
CHAMBERS ISLAND  2100   25     280/  6/ 12 1020.3R
MENOMINEE LKSHOR 2100   26     270/  8/ 12 1021.2R
$$


USA.gov is the U.S. government's official web portal to all federal, state and local government web resources and services.